Weather History for Leadville, CO

Change the Weather History Date:

Tuesday, November 19, 2013

  Actual Average Record
Temperature  
Mean Temperature 25 °F -  
Max Temperature 40 °F 35 °F 55 °F (2007)
Min Temperature 10 °F 11 °F -9 °F (1980)
Degree Days  
Heating Degree Days 40 42  
Month to date heating degree days 722 727  
Since 1 July heating degree days 2757 2916  
Cooling Degree Days 0 0  
Month to date cooling degree days 0 0  
Year to date cooling degree days 0 0  
Moisture  
Dew Point 14 °F    
Average Humidity 59    
Maximum Humidity 85    
Minimum Humidity 32    
Precipitation  
Precipitation T in 0.02 in 0.14 in (2003)
Month to date precipitation 0.74 0.51  
Year to date precipitation 16.61 11.45  
Sea Level Pressure  
Sea Level Pressure 29.88 in    
Wind  
Wind Speed 8 mph (NNW)    
Max Wind Speed 21 mph    
Max Gust Speed 27 mph    
Visibility 10 miles    
Events Snow    
T = Trace of Precipitation, MM = Missing Value Source: NWS Daily Summary

Daily Weather History Graph

Daily Weather History Graph

Search for Another Location

Airport:

Trip Planner

Search our weather history database for the weather conditions in past years. The results will help you decide how hot, cold, wet, or windy it might be!

Date:

Astronomy

Nov. 19, 2013 Rise Set
Actual Time 6:53 AM MST 4:47 PM MST
Civil Twilight 6:24 AM MST 5:16 PM MST
Nautical Twilight 5:51 AM MST 5:49 PM MST
Astronomical Twilight 5:20 AM MST 6:21 PM MST
Moon 6:41 PM MST (11/19) 8:34 AM MST (11/19)
Length of Visible Light 10h 52m
Length of Day
9h 54m
Waning Gibbous, 96% of the Moon is Illuminated
Nov 19
Waning Gibbous
Nov 25
Last Quarter
Dec 2
New
Dec 9
First Quarter
Dec 17
Full

Hourly Weather History & Observations

Time (MST) Temp. Windchill Dew Point Humidity Pressure Visibility Wind Dir Wind Speed Gust Speed Precip Events Conditions
12:53 AM 16.0 °F - 6.1 °F 65% 30.01 in 10.0 mi Calm Calm - N/A   Clear
1:53 AM 21.0 °F 16.2 °F 5.0 °F 50% 29.95 in 10.0 mi South 3.5 mph - N/A   Clear
2:53 AM 14.0 °F 6.5 °F 3.9 °F 64% 29.99 in 10.0 mi NNE 4.6 mph - N/A   Clear
3:53 AM 14.0 °F - 3.0 °F 62% 29.97 in 10.0 mi Calm Calm - N/A   Clear
4:53 AM 17.1 °F 11.7 °F 3.0 °F 54% 29.97 in 10.0 mi West 3.5 mph - N/A   Clear
5:53 AM 17.1 °F 10.0 °F 3.0 °F 54% 30.01 in 10.0 mi NE 4.6 mph - N/A   Clear
6:53 AM 14.0 °F - 1.9 °F 59% 30.03 in 10.0 mi Calm Calm - N/A   Clear
7:53 AM 19.0 °F - 5.0 °F 54% 30.02 in 10.0 mi Calm Calm - N/A   Clear
8:53 AM 28.0 °F 22.8 °F 7.0 °F 41% 29.94 in 10.0 mi NE 4.6 mph - N/A   Clear
9:53 AM 37.0 °F 28.1 °F 10.9 °F 34% 29.85 in 10.0 mi NW 15.0 mph - N/A   Clear
10:53 AM 37.0 °F 26.2 °F 12.9 °F 37% 29.85 in 10.0 mi WNW 21.9 mph 26.5 mph N/A   Clear
11:53 AM 39.0 °F 31.4 °F 15.1 °F 38% 29.80 in 10.0 mi NW 12.7 mph - N/A   Clear
12:53 PM 37.0 °F 28.9 °F 16.0 °F 42% 29.83 in 10.0 mi NNW 12.7 mph 20.7 mph N/A   Partly Cloudy
1:53 PM 36.0 °F 29.0 °F 18.0 °F 48% 29.79 in 10.0 mi NNW 9.2 mph 20.7 mph N/A   Overcast
2:53 PM 33.1 °F 24.9 °F 21.9 °F 64% 29.86 in 10.0 mi NW 10.4 mph 19.6 mph N/A   Overcast
3:53 PM 33.1 °F 26.9 °F 21.9 °F 64% 29.86 in 10.0 mi NNW 6.9 mph 17.3 mph N/A   Scattered Clouds
4:53 PM 30.0 °F 21.7 °F 21.9 °F 72% 29.86 in 10.0 mi NNW 9.2 mph - N/A   Scattered Clouds
5:53 PM 30.0 °F 22.4 °F 21.0 °F 69% 29.85 in 10.0 mi NNW 8.1 mph - N/A   Partly Cloudy
6:53 PM 28.9 °F 22.8 °F 21.0 °F 72% 29.88 in 10.0 mi NNW 5.8 mph - N/A   Overcast
7:53 PM 28.9 °F 19.2 °F 24.1 °F 82% 29.86 in 10.0 mi NNW 11.5 mph - N/A   Overcast
8:53 PM 28.9 °F 20.4 °F 21.9 °F 75% 29.79 in 10.0 mi North 9.2 mph - 0.00 in   Mostly Cloudy
9:53 PM 30.0 °F 21.7 °F 21.9 °F 72% 29.73 in 8.0 mi North 9.2 mph - 0.00 in Snow Light Snow
10:53 PM 30.0 °F 21.7 °F 23.0 °F 75% 29.72 in 8.0 mi North 9.2 mph - 0.00 in Snow Light Snow
11:53 PM 30.0 °F 21.1 °F 21.9 °F 72% 29.71 in 9.0 mi North 10.4 mph - 0.00 in Snow Light Snow